EW2874 Weather Reports


time (UTC)temp
C
wind
direction
speed
KPH
gust
KPH
rain 1hr
cm
rain 24hr
cm
rain mn
cm
humidity
%
barometer
mb
20260508013713 17 130 6.4 11.3 0.00 0.00 0.00 48 1007.7
20260508013114 17 159 6.4 11.3 0.00 0.00 0.00 47 1007.7
20260508012650 18 136 6.4 9.7 0.00 0.00 0.00 46 1007.6
20260508011647 18 137 6.4 12.9 0.00 0.00 0.00 45 1007.5
20260508011526 18 135 4.8 9.7 0.00 0.00 0.00 45 1007.6
20260508011148 18 140 6.4 12.9 0.00 0.00 0.00 44 1007.4
20260508010644 18 136 6.4 12.9 0.00 0.00 0.00 44 1007.3
20260508010143 19 132 6.4 12.9 0.00 0.00 0.00 43 1007.3
20260508004134 20 153 4.8 11.3 0.00 0.00 0.00 41 1007.2
20260508003635 20 163 4.8 11.3 0.00 0.00 0.00 41 1007.2
20260508003133 20 159 6.4 14.5 0.00 0.00 0.00 40 1007.2
20260508002634 20 143 6.4 14.5 0.00 0.00 0.00 40 1007.2
20260508002123 20 133 8.0 19.3 0.00 0.00 0.00 39 1007.2
20260508001653 20 153 6.4 19.3 0.00 0.00 0.00 39 1007.3
20260508001624 21 146 9.7 19.3 0.00 0.00 0.00 39 1007.2
20260508001124 21 149 8.0 20.9 0.00 0.00 0.00 39 1007.3
20260508000108 21 155 8.0 17.7 0.00 0.00 0.00 39 1007.4
20260508000028 20 156 6.4 17.7 0.00 0.00 0.00 39 1007.5
20260507235525 21 162 8.0 17.7 0.00 0.00 0.00 39 1007.4
20260507234515 21 138 9.7 19.3 0.00 0.00 0.00 38 1007.4
20260507234013 21 155 9.7 19.3 0.00 0.00 0.00 38 1007.4
20260507233011 21 130 6.4 16.1 0.00 0.00 0.00 38 1007.5
20260507232517 21 184 4.8 11.3 0.00 0.00 0.00 39 1007.5
20260507232009 21 187 6.4 16.1 0.00 0.00 0.00 37 1007.5
20260507231510 21 138 9.7 16.1 0.00 0.00 0.00 36 1007.6
20260507231017 22 216 9.7 19.3 0.00 0.00 0.00 34 1007.6
20260507230505 22 215 9.7 19.3 0.00 0.00 0.00 34 1007.6
20260507230143 21 178 6.4 17.7 0.00 0.00 0.00 34 1007.8
20260507230005 22 147 9.7 17.7 0.00 0.00 0.00 35 1007.7
20260507225503 21 161 9.7 22.5 0.00 0.00 0.00 36 1007.7
20260507225005 21 140 9.7 22.5 0.00 0.00 0.00 35 1007.7
20260507224504 21 123 6.4 19.3 0.00 0.00 0.00 38 1008.0
20260507224003 21 173 11.3 24.1 0.00 0.00 0.00 37 1007.7
20260507223450 22 182 11.3 32.2 0.00 0.00 0.00 36 1007.9
20260507222432 22 186 8.0 17.7 0.00 0.00 0.00 36 1008.0
20260507221932 22 189 9.7 22.5 0.00 0.00 0.00 36 1008.0
20260507220931 22 168 12.9 30.6 0.00 0.00 0.00 34 1008.3
20260507220434 22 122 9.7 30.6 0.00 0.00 0.00 36 1008.3
20260507215933 22 182 11.3 24.1 0.00 0.00 0.00 37 1008.4
20260507215429 21 194 12.9 24.1 0.00 0.00 0.00 35 1008.4
20260507214935 21 138 11.3 29.0 0.00 0.00 0.00 37 1008.5
20260507214600 21 141 9.7 29.0 0.00 0.00 0.00 37 1008.7
20260507214429 21 185 11.3 29.0 0.00 0.00 0.00 36 1008.6
20260507213430 21 170 14.5 24.1 0.00 0.00 0.00 36 1008.8
20260507212431 21 200 16.1 35.4 0.00 0.00 0.00 37 1008.9
20260507211907 21 200 14.5 35.4 0.00 0.00 0.00 36 1009.0
20260507211407 21 187 9.7 24.1 0.00 0.00 0.00 36 1009.0
20260507210906 21 134 14.5 33.8 0.00 0.00 0.00 37 1009.2
20260507210404 21 151 14.5 33.8 0.00 0.00 0.00 37 1009.2
20260507205905 21 205 12.9 32.2 0.00 0.00 0.00 36 1009.2
20260507205401 21 135 16.1 32.2 0.00 0.00 0.00 38 1009.2
20260507204623 21 219 17.7 33.8 0.00 0.00 0.00 36 1009.6
20260507204403 21 179 12.9 33.8 0.00 0.00 0.00 35 1009.4
20260507203859 21 186 9.7 32.2 0.00 0.00 0.00 38 1009.5
20260507203403 21 153 14.5 35.4 0.00 0.00 0.00 38 1009.5
20260507202903 21 149 16.1 35.4 0.00 0.00 0.00 35 1009.6
20260507202355 21 169 12.9 29.0 0.00 0.00 0.00 37 1009.6
20260507201856 21 190 12.9 24.1 0.00 0.00 0.00 39 1009.7
20260507200853 21 178 11.3 29.0 0.00 0.00 0.00 41 1009.8
20260507200354 20 123 12.9 29.0 0.00 0.00 0.00 40 1009.9
20260507195829 20 151 14.5 41.8 0.00 0.00 0.00 42 1010.0
20260507195328 20 190 14.5 41.8 0.00 0.00 0.00 42 1009.9
20260507194831 20 171 14.5 32.2 0.00 0.00 0.00 39 1010.0
20260507194657 20 195 17.7 32.2 0.00 0.00 0.00 39 1010.4
20260507194328 20 142 12.9 32.2 0.00 0.00 0.00 42 1010.1
20260507193827 20 181 12.9 29.0 0.00 0.00 0.00 39 1010.1
20260507193332 20 166 14.5 30.6 0.00 0.00 0.00 39 1010.2
20260507193050 20 209 12.9 30.6 0.00 0.00 0.00 40 1010.6
20260507192823 20 166 14.5 33.8 0.00 0.00 0.00 42 1010.3
20260507192326 20 200 14.5 35.4 0.00 0.00 0.00 42 1010.3
20260507191822 20 211 12.9 35.4 0.00 0.00 0.00 41 1010.3
20260507191316 20 90 12.9 24.1 0.00 0.00 0.00 42 1010.4
20260507190817 20 165 12.9 29.0 0.00 0.00 0.00 42 1010.5
20260507190313 19 176 12.9 29.0 0.00 0.00 0.00 43 1010.4
20260507185812 19 121 12.9 24.1 0.00 0.00 0.00 42 1010.6
20260507185307 19 171 11.3 24.1 0.00 0.00 0.00 42 1010.7
20260507184806 19 142 12.9 25.7 0.00 0.00 0.00 43 1010.6
20260507184304 19 148 12.9 25.7 0.00 0.00 0.00 43 1010.6
20260507183809 19 191 11.3 25.7 0.00 0.00 0.00 43 1010.8
20260507183306 19 148 11.3 29.0 0.00 0.00 0.00 41 1010.9
20260507182753 19 188 11.3 29.0 0.00 0.00 0.00 43 1010.9
20260507182241 19 138 14.5 29.0 0.00 0.00 0.00 44 1011.1
20260507181735 18 165 17.7 38.6 0.00 0.00 0.00 43 1011.1
20260507181608 18 218 17.7 38.6 0.00 0.00 0.00 42 1011.5
20260507181233 18 204 16.1 38.6 0.00 0.00 0.00 44 1011.2
20260507180727 18 180 12.9 32.2 0.00 0.00 0.00 43 1011.4
20260507180222 19 175 12.9 30.6 0.00 0.00 0.00 45 1011.4
20260507180020 18 207 11.3 30.6 0.00 0.00 0.00 46 1011.8
20260507175722 18 210 12.9 30.6 0.00 0.00 0.00 44 1011.6
20260507174720 18 205 14.5 33.8 0.00 0.00 0.00 46 1011.7
20260507174220 18 176 16.1 33.8 0.00 0.00 0.00 45 1011.8
20260507173716 17 205 17.7 35.4 0.00 0.00 0.00 47 1011.7
20260507173224 17 199 20.9 37.0 0.00 0.00 0.00 45 1011.8
20260507172709 17 192 20.9 37.0 0.00 0.00 0.00 45 1011.9
20260507172205 17 206 20.9 37.0 0.00 0.00 0.00 45 1011.9
20260507171702 17 175 19.3 37.0 0.00 0.00 0.00 46 1012.0
20260507171205 17 226 16.1 35.4 0.00 0.00 0.00 45 1012.1
20260507170637 17 178 16.1 35.4 0.00 0.00 0.00 47 1012.2
20260507170137 17 153 17.7 37.0 0.00 0.00 0.00 46 1012.4
20260507170037 17 188 14.5 37.0 0.00 0.00 0.00 47 1012.7
20260507165635 17 195 17.7 37.0 0.00 0.00 0.00 46 1012.3
20260507165137 17 108 19.3 40.2 0.00 0.00 0.00 46 1012.5
20260507164628 17 187 16.1 40.2 0.00 0.00 0.00 45 1012.7
20260507164133 17 127 19.3 37.0 0.00 0.00 0.00 50 1012.6
20260507163625 17 202 19.3 37.0 0.00 0.00 0.00 46 1012.8
20260507163124 17 166 17.7 35.4 0.00 0.00 0.00 47 1012.7
20260507162628 17 186 16.1 32.2 0.00 0.00 0.00 48 1012.8
20260507162121 16 180 16.1 32.2 0.00 0.00 0.00 48 1012.9
20260507161651 16 192 14.5 32.2 0.00 0.00 0.00 49 1013.3
20260507161624 16 186 14.5 32.2 0.00 0.00 0.00 49 1012.9
20260507161122 16 178 16.1 32.2 0.00 0.00 0.00 50 1012.9
20260507160108 16 229 17.7 35.4 0.00 0.00 0.00 50 1013.0
20260507160042 15 209 19.3 35.4 0.00 0.00 0.00 50 1013.5
20260507155541 16 210 17.7 35.4 0.00 0.00 0.00 51 1013.1
20260507155048 15 195 17.7 30.6 0.00 0.00 0.00 53 1013.1
20260507154519 15 211 19.3 33.8 0.00 0.00 0.00 53 1013.2
20260507153957 15 186 17.7 33.8 0.00 0.00 0.00 52 1013.3
20260507152854 15 185 12.9 32.2 0.00 0.00 0.00 54 1013.4
20260507152327 15 240 16.1 32.2 0.00 0.00 0.00 55 1013.6
20260507151814 15 177 16.1 30.6 0.00 0.00 0.00 55 1013.5
20260507151312 15 198 17.7 32.2 0.00 0.00 0.00 56 1013.6
20260507150743 15 185 17.7 32.2 0.00 0.00 0.00 56 1013.6
20260507150217 14 139 19.3 33.8 0.00 0.00 0.00 56 1013.6
20260507150148 14 155 16.1 33.8 0.00 0.00 0.00 56 1014.1
20260507145657 14 192 19.3 35.4 0.00 0.00 0.00 57 1013.6
20260507145124 14 204 19.3 35.4 0.00 0.00 0.00 56 1013.5
20260507144600 13 211 17.7 33.8 0.00 0.00 0.00 58 1013.6
20260507144543 13 221 16.1 33.8 0.00 0.00 0.00 58 1014.1
20260507144033 13 206 19.3 37.0 0.00 0.00 0.00 59 1013.7
20260507141855 13 185 14.5 22.5 0.00 0.00 0.00 63 1013.7
20260507140756 12 171 14.5 30.6 0.00 0.00 0.00 66 1013.9
20260507140238 12 196 14.5 30.6 0.00 0.00 0.00 66 1013.9
20260507135738 12 225 12.9 24.1 0.00 0.00 0.00 68 1013.9
20260507135228 11 190 12.9 24.1 0.00 0.00 0.00 69 1013.9
20260507134723 11 194 12.9 25.7 0.00 0.00 0.00 69 1013.9
20260507134655 11 186 12.9 25.7 0.00 0.00 0.00 69 1014.4
20260507133638 11 175 12.9 22.5 0.00 0.00 0.00 72 1013.9
20260507133122 11 215 11.3 22.5 0.00 0.00 0.00 73 1013.9
20260507133038 10 203 11.3 22.5 0.00 0.00 0.00 73 1014.5
20260507132119 10 206 9.7 22.5 0.00 0.00 0.00 76 1014.0
20260507131621 10 190 9.7 17.7 0.00 0.00 0.00 77 1014.0
20260507131117 10 186 9.7 17.7 0.00 0.00 0.00 78 1014.0
20260507130616 9 173 8.0 17.7 0.00 0.00 0.00 79 1014.0
20260507130124 9 185 8.0 16.1 0.00 0.00 0.00 79 1014.0
20260507124616 8 183 6.4 14.5 0.00 0.00 0.00 81 1013.9
20260507123136 7 147 4.8 11.3 0.00 0.00 0.00 83 1014.5
20260507123114 7 174 4.8 11.3 0.00 0.00 0.00 83 1013.9
20260507122613 7 159 4.8 9.7 0.00 0.00 0.00 83 1013.9
20260507122109 7 153 3.2 12.9 0.00 0.00 0.00 84 1013.9
20260507121615 7 155 3.2 9.7 0.00 0.00 0.00 84 1013.9
20260507121541 6 155 3.2 9.7 0.00 0.00 0.00 84 1014.5
20260507121043 6 169 1.6 9.7 0.00 0.00 0.00 85 1014.0
20260507120034 6 143 1.6 6.4 0.00 0.00 0.00 85 1014.0
20260507115535 6 143 1.6 6.4 0.00 0.00 0.00 85 1013.9
20260507114532 5 180 1.6 6.4 0.00 0.00 0.00 85 1013.9
20260507114029 5 180 3.2 8.0 0.00 0.00 0.00 85 1013.9
20260507113527 5 192 4.8 9.7 0.00 0.00 0.00 84 1013.9
20260507113027 5 189 6.4 9.7 0.00 0.00 0.00 84 1014.0
20260507112525 5 183 4.8 9.7 0.00 0.00 0.00 84 1013.9
20260507111649 5 155 1.6 6.4 0.00 0.00 0.00 83 1014.4
20260507111019 5 155 0.0 1.6 0.00 0.00 0.00 83 1013.8
20260507110517 5 155 0.0 6.4 0.00 0.00 0.00 83 1013.8
20260507110017 5 155 0.0 6.4 0.00 0.00 0.00 82 1014.3
20260507110015 5 155 0.0 6.4 0.00 0.00 0.00 82 1013.7
20260507105516 5 155 0.0 8.0 0.00 0.00 0.00 82 1013.7
20260507105014 5 155 1.6 8.0 0.00 0.00 0.00 82 1013.7
20260507104514 5 155 1.6 6.4 0.00 0.00 0.00 81 1013.7
20260507104015 5 155 0.0 6.4 0.00 0.00 0.00 81 1013.8
20260507103507 5 155 0.0 1.6 0.00 0.00 0.00 81 1013.7
20260507102515 5 155 0.0 3.2 0.00 0.00 0.00 80 1013.8
20260507101657 5 155 0.0 3.2 0.00 0.00 0.00 81 1014.5
20260507101500 5 155 1.6 6.4 0.00 0.00 0.00 81 1013.9
20260507100957 5 155 1.6 6.4 0.00 0.00 0.00 81 1013.9
20260507100455 5 155 1.6 6.4 0.00 0.00 0.00 80 1014.0
20260507100027 5 155 1.6 6.4 0.00 0.00 0.00 80 1014.6
20260507095958 5 155 1.6 6.4 0.00 0.00 0.00 80 1014.0
20260507095456 5 155 3.2 6.4 0.00 0.00 0.00 80 1014.0
20260507094956 5 155 1.6 6.4 0.00 0.00 0.00 80 1014.0
20260507094427 5 155 3.2 6.4 0.00 0.00 0.00 80 1014.1
20260507092406 4 155 3.2 6.4 0.00 0.00 0.00 79 1014.2
20260507091903 4 155 3.2 6.4 0.00 0.00 0.00 78 1014.2
20260507091401 5 155 1.6 6.4 0.00 0.00 0.00 78 1014.2
20260507090900 5 155 1.6 6.4 0.00 0.00 0.00 77 1014.3
20260507090401 5 155 1.6 6.4 0.00 0.00 0.00 77 1014.3
20260507090115 4 155 0.0 3.2 0.00 0.00 0.00 76 1014.9
20260507085858 5 155 0.0 3.2 0.00 0.00 0.00 76 1014.3
20260507085400 5 155 0.0 1.6 0.00 0.00 0.00 75 1014.3
20260507084854 5 155 0.0 3.2 0.00 0.00 0.00 75 1014.4
20260507084354 5 155 1.6 3.2 0.00 0.00 0.00 76 1014.4
20260507083854 5 155 1.6 3.2 0.00 0.00 0.00 76 1014.4
20260507083354 5 155 0.0 3.2 0.00 0.00 0.00 73 1014.4
20260507082852 5 155 0.0 0.0 0.00 0.00 0.00 71 1014.6
20260507082353 5 155 0.0 0.0 0.00 0.00 0.00 71 1014.6
20260507081823 5 155 0.0 1.6 0.00 0.00 0.00 72 1014.6
20260507081325 5 155 0.0 1.6 0.00 0.00 0.00 72 1014.6
20260507080123 5 155 0.0 0.0 0.00 0.00 0.00 69 1015.1
20260507075812 6 155 0.0 0.0 0.00 0.00 0.00 69 1014.6
20260507074812 6 155 0.0 1.6 0.00 0.00 0.00 69 1014.8
20260507074308 6 155 1.6 4.8 0.00 0.00 0.00 69 1014.8
20260507072802 6 154 1.6 4.8 0.00 0.00 0.00 68 1014.9
20260507072301 6 154 1.6 8.0 0.00 0.00 0.00 68 1015.1
20260507070732 6 277 1.6 6.4 0.00 0.00 0.00 67 1015.1
20260507070243 6 277 0.0 6.4 0.00 0.00 0.00 66 1015.1
20260507070131 6 277 0.0 6.4 0.00 0.00 0.00 66 1015.6
20260507065731 6 277 0.0 3.2 0.00 0.00 0.00 66 1015.2
20260507065234 6 277 0.0 1.6 0.00 0.00 0.00 66 1015.2
20260507064728 6 277 1.6 3.2 0.00 0.00 0.00 65 1015.3
20260507064512 6 277 0.0 3.2 0.00 0.00 0.00 65 1015.6
20260507064225 6 277 1.6 3.2 0.00 0.00 0.00 65 1015.3
20260507063725 6 277 0.0 3.2 0.00 0.00 0.00 65 1015.2
20260507063226 6 277 1.6 3.2 0.00 0.00 0.00 65 1015.3
20260507062722 6 277 1.6 4.8 0.00 0.00 0.00 65 1015.3
20260507060736 6 277 3.2 6.4 0.00 0.00 0.00 65 1015.6
20260507060216 6 277 3.2 6.4 0.00 0.00 0.00 64 1015.6
20260507055715 6 277 3.2 6.4 0.00 0.00 0.00 64 1015.6
20260507055216 6 277 3.2 8.0 0.00 0.00 0.00 64 1015.7
20260507054718 6 277 3.2 8.0 0.00 0.00 0.00 64 1015.7
20260507054649 6 277 3.2 8.0 0.00 0.00 0.00 64 1016.2
20260507054149 7 277 1.6 8.0 0.00 0.00 0.00 63 1015.7
20260507053654 7 277 0.0 3.2 0.00 0.00 0.00 62 1015.7
20260507053135 7 277 0.0 1.6 0.00 0.00 0.00 62 1015.7
20260507053022 6 277 0.0 1.6 0.00 0.00 0.00 62 1016.1
20260507052640 7 277 0.0 1.6 0.00 0.00 0.00 62 1015.7
20260507051639 7 277 0.0 0.0 0.00 0.00 0.00 63 1015.7
20260507051133 7 277 0.0 0.0 0.00 0.00 0.00 63 1015.7
20260507050630 7 277 0.0 0.0 0.00 0.00 0.00 63 1015.8
20260507045625 7 277 0.0 0.0 0.00 0.00 0.00 64 1015.8
20260507045126 7 277 0.0 0.0 0.00 0.00 0.00 64 1015.7
20260507044617 7 277 0.0 0.0 0.00 0.00 0.00 64 1015.8
20260507044117 7 277 0.0 0.0 0.00 0.00 0.00 64 1015.8
20260507043114 7 277 0.0 1.6 0.00 0.00 0.00 63 1015.9
20260507042617 7 277 0.0 3.2 0.00 0.00 0.00 64 1015.9
20260507042112 7 277 0.0 3.2 0.00 0.00 0.00 64 1015.9
20260507041554 7 277 0.0 0.0 0.00 0.00 0.00 63 1016.4
20260507041053 7 277 0.0 0.0 0.00 0.00 0.00 63 1015.9
20260507040054 7 277 1.6 3.2 0.00 0.00 0.00 65 1016.0
20260507040003 7 277 0.0 3.2 0.00 0.00 0.00 65 1016.4
20260507035537 7 277 1.6 3.2 0.00 0.00 0.00 65 1016.0
20260507034533 7 277 1.6 3.2 0.00 0.00 0.00 65 1016.1
20260507034047 7 277 1.6 3.2 0.00 0.00 0.00 63 1016.1
20260507033532 7 277 0.0 3.2 0.00 0.00 0.00 62 1016.0
20260507033032 7 277 0.0 1.6 0.00 0.00 0.00 63 1016.1
20260507032530 7 277 0.0 1.6 0.00 0.00 0.00 62 1016.1
20260507031531 7 277 0.0 3.2 0.00 0.00 0.00 63 1016.0
20260507031032 7 277 1.6 6.4 0.00 0.00 0.00 58 1016.0
20260507030527 7 277 3.2 6.4 0.00 0.00 0.00 56 1016.0
20260507030104 7 277 1.6 3.2 0.00 0.00 0.00 57 1016.4
20260507030049 7 277 1.6 3.2 0.00 0.00 0.00 58 1016.0
20260507025029 8 277 0.0 0.0 0.00 0.00 0.00 54 1016.0
20260507024013 8 277 0.0 1.6 0.00 0.00 0.00 55 1016.0
20260507023510 8 277 1.6 3.2 0.00 0.00 0.00 55 1016.0
20260507023008 8 277 3.2 6.4 0.00 0.00 0.00 57 1015.9
20260507021504 9 277 0.0 0.0 0.00 0.00 0.00 53 1015.8
20260507021015 10 277 0.0 0.0 0.00 0.00 0.00 50 1015.7
20260507020500 10 277 0.0 0.0 0.00 0.00 0.00 48 1015.6
20260507020149 10 277 0.0 0.0 0.00 0.00 0.00 48 1016.0
20260507015457 11 277 0.0 0.0 0.00 0.00 0.00 46 1015.5
20260507014525 11 277 0.0 0.0 0.00 0.00 0.00 42 1015.9
20260507014447 11 277 0.0 0.0 0.00 0.00 0.00 42 1015.5
20260507013946 11 276 0.0 0.0 0.00 0.00 0.00 40 1015.5